Location: Lecco
(45.8566°N, 9.3977°E)
Time: 08:21:09
(UTC+02:00)

Altair - Pass Details

Date: 21 August 2020
Orbit: 1501 x 1682 km, 47.2° (Epoch: 25 September)

Event Time Altitude Azimuth Distance (km) Brightness Sun altitude
Rises 04:33:20 0° 277° (W) 4,814 - -18.4°
Exits shadow 04:35:12 - 278° (W) 4,214 9.4 -18.2°
Reaches altitude 10° 04:36:29 10° 278° (W) 3,803 9.2 -18.0°
Maximum altitude 04:46:09 85° 8° (N) 1,558 7.5 -16.7°
Drops below altitude 10° 04:55:28 10° 98° (E) 3,674 10.2 -15.4°
Sets 04:58:27 0° 99° (E) 4,643 10.8 -15.0°
